DW9945 Daganzo de Arriba ES current weather conditions

sailwx.info

Wind from 355 at 1 knots gusting 4

Air temperature 3.9° C
Dewpoint 0.8° C

Last reported at 2020-Feb-19 01:05 UTC.
Time now 2020-Feb-19 01:33 UTC

Location: N 40°33' W 003°28'.
View on Google Maps.

See reports from other nearby stations

  
Tides and Currents Weather Stations Pressure Air Temp Water Temp Dewpoint Dewpoint Depression Visibility Wind Speed Wind Dir Waves Ship Positions
date/time (UTC)wind fromknots sea level pressurealtimeterstation pressurevisibilityair tempwater tempwave heightnotes
2020-Feb-19 01:05 355 1 gusting 4 3.9
2020-Feb-19 01:00 351 1 gusting 2 4.4
2020-Feb-19 00:55 348 1 gusting 2 5.0
2020-Feb-19 00:50 009 2 gusting 6 5.0
2020-Feb-19 00:45 011 2 gusting 7 5.0
2020-Feb-19 00:40 023 4 gusting 8 5.0
2020-Feb-19 00:35 016 4 gusting 7 5.0
2020-Feb-19 00:30 012 3 gusting 7 5.0
2020-Feb-19 00:25 024 5 gusting 10 5.6
2020-Feb-19 00:20 033 4 gusting 8 5.6
2020-Feb-19 00:15 030 5 gusting 8 5.6
2020-Feb-19 00:10 039 4 gusting 7 5.0
2020-Feb-19 00:05 010 1 gusting 4 5.6
2020-Feb-19 00:00 010 2 gusting 7 5.6
2020-Feb-18 23:55 033 4 gusting 6 5.6
2020-Feb-18 23:50 004 2 gusting 6 5.6
2020-Feb-18 23:45 030 4 gusting 10 5.6
2020-Feb-18 23:30 014 2 gusting 10 6.1
2020-Feb-18 23:25 009 4 gusting 7 6.1
2020-Feb-18 23:20 017 3 gusting 6 6.7
2020-Feb-18 23:15 019 1 gusting 8 6.7
2020-Feb-18 23:10 009 5 gusting 8 6.7
2020-Feb-18 23:05 018 4 gusting 7 6.7
2020-Feb-18 23:00 009 4 gusting 10 7.2
2020-Feb-18 22:50 035 6 gusting 11 7.2
2020-Feb-18 22:45 023 4 gusting 10 7.2
2020-Feb-18 22:40 020 6 gusting 12 7.2
2020-Feb-18 22:35 024 7 gusting 10 7.2
2020-Feb-18 22:30 020 7 gusting 10 7.2
2020-Feb-18 22:25 021 6 gusting 10 7.8
2020-Feb-18 22:20 025 5 gusting 10 7.8
2020-Feb-18 22:15 022 5 gusting 10 7.8
2020-Feb-18 22:10 032 4 gusting 11 7.8
2020-Feb-18 22:05 006 4 gusting 7 7.8
2020-Feb-18 22:00 348 4 gusting 7 7.2
2020-Feb-18 21:55 357 2 gusting 6 7.2
2020-Feb-18 21:45 003 4 gusting 6 7.2
2020-Feb-18 21:40 003 5 gusting 7 7.2
2020-Feb-18 21:35 342 7 gusting 10 6.7
2020-Feb-18 21:30 339 7 gusting 10 6.7
2020-Feb-18 21:20 330 5 gusting 6 6.7
2020-Feb-18 21:15 339 3 gusting 5 6.7
2020-Feb-18 21:10 340 4 gusting 6 6.7
2020-Feb-18 21:05 338 4 gusting 6 7.2
2020-Feb-18 21:00 343 4 gusting 5 7.2
2020-Feb-18 20:55 342 2 gusting 4 7.2
2020-Feb-18 20:50 346 3 gusting 4 7.2
2020-Feb-18 20:45 351 3 gusting 6 7.8
2020-Feb-18 20:40 349 6 gusting 7 7.8
2020-Feb-18 20:35 334 6 gusting 8 7.8
2020-Feb-18 20:30 329 6 gusting 10 8.3
2020-Feb-18 20:20 349 6 gusting 10 8.3
2020-Feb-18 20:15 341 6 gusting 10 8.3
2020-Feb-18 20:10 341 7 gusting 10 8.9
2020-Feb-18 20:05 329 8 gusting 12 9.4
2020-Feb-18 20:00 328 8 gusting 11 9.4
2020-Feb-18 19:55 328 7 gusting 10 8.9
2020-Feb-18 19:50 327 6 gusting 8 8.9
2020-Feb-18 19:45 331 5 gusting 6 8.9
2020-Feb-18 19:40 336 4 gusting 5 8.9
2020-Feb-18 19:35 337 2 gusting 4 9.4
2020-Feb-18 19:30 315 4 gusting 6 10.0
2020-Feb-18 19:25 309 5 gusting 6 10.0
2020-Feb-18 19:20 310 3 gusting 6 9.4
2020-Feb-18 19:15 293 1 gusting 2 10.0
2020-Feb-18 19:10 294 1 gusting 2 9.4
2020-Feb-18 19:05 294 0 gusting 1 9.4
2020-Feb-18 19:00 294 0 gusting 1 9.4
2020-Feb-18 18:55 294 0 gusting 1 10.0
2020-Feb-18 18:50 294 1 gusting 2 10.0
2020-Feb-18 18:45 294 1 gusting 2 10.0
2020-Feb-18 18:40 293 2 gusting 2 10.0
2020-Feb-18 18:35 293 0 gusting 1 10.6
2020-Feb-18 18:30 293 0 gusting 2 10.6
2020-Feb-18 18:25 293 1 gusting 1 10.6
2020-Feb-18 18:20 293 1 gusting 1 10.6
2020-Feb-18 18:15 293 0 gusting 1 10.6
2020-Feb-18 18:10 293 0 gusting 2 11.1
2020-Feb-18 18:05 292 0 gusting 1 11.1
2020-Feb-18 18:00 292 1 gusting 2 11.7
2020-Feb-18 17:55 292 1 gusting 2 11.7
2020-Feb-18 17:50 292 0 gusting 2 11.7
2020-Feb-18 17:45 292 1 gusting 2 12.2
2020-Feb-18 17:40 292 1 gusting 2 12.2
2020-Feb-18 17:35 292 1 gusting 2 12.2
2020-Feb-18 17:30 292 2 gusting 2 12.2
2020-Feb-18 17:25 292 2 gusting 2 12.2
2020-Feb-18 17:20 292 2 gusting 2 12.2
2020-Feb-18 17:15 292 4 gusting 4 12.2
2020-Feb-18 17:10 292 2 gusting 4 12.8
2020-Feb-18 17:05 292 2 gusting 5 12.8
2020-Feb-18 17:00 284 2 gusting 5 12.8
2020-Feb-18 16:55 284 5 gusting 6 12.8
2020-Feb-18 16:50 292 3 gusting 5 12.8
2020-Feb-18 16:45 201 1 gusting 2 12.8
2020-Feb-18 16:40 200 1 gusting 2 13.3
2020-Feb-18 16:35 200 1 gusting 2 13.3
2020-Feb-18 16:30 200 0 gusting 2 13.9
2020-Feb-18 16:25 199 0 gusting 2 13.9
2020-Feb-18 16:20 199 1 gusting 2 14.4
2020-Feb-18 16:15 199 14.4
2020-Feb-18 16:10 199 0 gusting 2 13.9
2020-Feb-18 16:05 199 0 gusting 2 13.9
2020-Feb-18 16:00 199 0 gusting 2 13.9
2020-Feb-18 15:55 199 1 gusting 2 13.9
2020-Feb-18 15:50 178 0 gusting 2 13.9
2020-Feb-18 15:45 175 0 gusting 2 13.3
2020-Feb-18 15:40 175 1 gusting 2 13.3
2020-Feb-18 15:35 183 1 gusting 2 13.9
2020-Feb-18 15:15 204 0 gusting 2 13.3
2020-Feb-18 15:10 204 2 gusting 5 12.8
2020-Feb-18 15:05 204 1 gusting 2 13.3
2020-Feb-18 15:00 205 1 gusting 2 13.3
2020-Feb-18 14:55 210 1 gusting 4 12.8
2020-Feb-18 14:50 196 1 gusting 4 13.3
2020-Feb-18 14:45 217 0 gusting 2 13.3
2020-Feb-18 14:35 151 0 gusting 2 12.8
2020-Feb-18 14:30 151 0 gusting 2 12.8
2020-Feb-18 14:25 152 0 gusting 2 12.8
2020-Feb-18 14:20 153 1 gusting 2 12.8
2020-Feb-18 14:15 173 1 gusting 4 12.8
2020-Feb-18 14:10 190 1 gusting 4 12.8
2020-Feb-18 14:05 194 1 gusting 5 12.8
2020-Feb-18 14:00 164 1 gusting 6 12.8
2020-Feb-18 13:55 186 2 gusting 5 12.8
2020-Feb-18 13:50 141 0 gusting 2 12.2
2020-Feb-18 13:45 138 1 gusting 2 12.2
2020-Feb-18 13:40 137 0 gusting 2 12.2
2020-Feb-18 13:35 137 2 gusting 2 12.2
2020-Feb-18 13:30 119 2 gusting 5 12.2
2020-Feb-18 13:25 157 3 gusting 6 12.2
2020-Feb-18 13:20 154 1 gusting 5 12.2
2020-Feb-18 13:15 121 1 gusting 5 12.2
2020-Feb-18 13:10 145 1 gusting 4 12.2
2020-Feb-18 13:05 119 1 gusting 4 12.2
2020-Feb-18 13:00 028 12.2
2020-Feb-18 12:55 028 1 gusting 4 11.7
2020-Feb-18 12:50 147 4 gusting 8 12.2
2020-Feb-18 12:45 122 3 gusting 6 12.2
2020-Feb-18 12:40 064 1 gusting 6 12.2
2020-Feb-18 12:35 078 2 gusting 5 12.2
2020-Feb-18 12:30 018 2 gusting 6 11.7
2020-Feb-18 12:25 042 2 gusting 7 11.1
2020-Feb-18 12:20 075 4 gusting 8 11.1
2020-Feb-18 12:15 055 4 gusting 8 10.6
2020-Feb-18 12:10 057 4 gusting 8 10.6
2020-Feb-18 12:05 070 4 gusting 8 10.6
2020-Feb-18 12:00 058 3 gusting 7 10.6
2020-Feb-18 11:55 051 6 gusting 8 10.0
2020-Feb-18 11:50 056 1 gusting 8 10.0
2020-Feb-18 11:45 081 4 gusting 8 10.0
2020-Feb-18 11:40 048 3 gusting 8 10.0
2020-Feb-18 11:35 055 4 gusting 8 10.0
2020-Feb-18 11:30 071 5 gusting 8 10.0
2020-Feb-18 11:25 070 6 gusting 8 10.0
2020-Feb-18 11:20 074 4 gusting 8 9.4
2020-Feb-18 11:15 077 6 gusting 8 9.4
2020-Feb-18 11:10 077 4 gusting 6 9.4
2020-Feb-18 11:05 051 4 gusting 7 8.9
2020-Feb-18 11:00 054 2 gusting 7 8.9
2020-Feb-18 10:55 039 3 gusting 7 8.3
2020-Feb-18 10:50 023 4 gusting 10 8.3
2020-Feb-18 10:45 034 3 gusting 10 8.3
2020-Feb-18 10:40 036 5 gusting 8 7.8
2020-Feb-18 10:35 023 5 gusting 10 7.8
2020-Feb-18 10:30 015 3 gusting 10 7.8
2020-Feb-18 10:25 034 4 gusting 11 7.2
2020-Feb-18 10:20 034 4 gusting 8 7.2
2020-Feb-18 10:15 015 4 gusting 10 6.7
2020-Feb-18 10:10 018 6 gusting 11 6.7
2020-Feb-18 10:05 010 6 gusting 11 6.7
2020-Feb-18 10:00 357 5 gusting 12 6.7
2020-Feb-18 09:55 350 7 gusting 12 6.7
2020-Feb-18 09:50 349 6 gusting 11 6.7
2020-Feb-18 09:45 354 5 gusting 10 6.7
2020-Feb-18 09:40 353 6 gusting 10 6.7
2020-Feb-18 09:35 344 6 gusting 10 6.7
2020-Feb-18 09:30 353 6 gusting 12 6.1
2020-Feb-18 09:25 350 6 gusting 10 6.1
2020-Feb-18 09:20 342 6 gusting 10 6.1
2020-Feb-18 09:15 352 4 gusting 10 6.1
2020-Feb-18 09:10 358 5 gusting 10 6.1
2020-Feb-18 09:05 353 7 gusting 11 6.1
2020-Feb-18 09:00 350 5 gusting 8 6.1
2020-Feb-18 08:55 001 2 gusting 7 5.6
2020-Feb-18 08:50 355 6 gusting 8 5.6
2020-Feb-18 08:45 355 5 gusting 10 5.6
2020-Feb-18 08:40 018 4 gusting 6 5.0
2020-Feb-18 08:35 345 1 gusting 4 5.0
2020-Feb-18 08:30 019 1 gusting 4 4.4
2020-Feb-18 08:25 357 2 gusting 4 4.4
2020-Feb-18 08:20 004 2 gusting 5 4.4
2020-Feb-18 08:15 017 1 gusting 2 3.9
2020-Feb-18 08:10 001 2 gusting 4 3.9
2020-Feb-18 08:05 353 2 gusting 4 3.9
2020-Feb-18 08:00 355 2 gusting 7 3.9
2020-Feb-18 07:55 356 1 gusting 7 3.9
2020-Feb-18 07:50 013 2 gusting 7 3.9
2020-Feb-18 07:45 025 3 gusting 8 3.9
2020-Feb-18 07:40 031 5 gusting 8 3.9
2020-Feb-18 07:35 019 5 gusting 10 3.9
2020-Feb-18 07:30 015 5 gusting 8 3.9
2020-Feb-18 07:25 017 6 gusting 11 3.9
2020-Feb-18 07:20 029 6 gusting 11 3.9
2020-Feb-18 07:15 016 5 gusting 10 3.9
2020-Feb-18 07:10 017 6 gusting 11 3.9
2020-Feb-18 07:05 005 6 gusting 12 3.9
2020-Feb-18 07:00 009 6 gusting 10 3.9
2020-Feb-18 06:55 001 5 gusting 10 3.9
2020-Feb-18 06:50 003 5 gusting 12 3.9
2020-Feb-18 06:45 006 4 gusting 7 3.9
2020-Feb-18 06:40 005 5 gusting 11 3.9
2020-Feb-18 06:35 354 5 gusting 10 3.9
2020-Feb-18 06:30 347 6 gusting 10 4.4
2020-Feb-18 06:25 004 4 gusting 10 4.4
2020-Feb-18 06:20 017 5 gusting 10 4.4
2020-Feb-18 06:15 021 5 gusting 10 4.4
2020-Feb-18 06:10 015 3 gusting 8 4.4
2020-Feb-18 06:05 350 4 gusting 10 4.4
2020-Feb-18 06:00 358 4 gusting 6 4.4
2020-Feb-18 05:55 016 3 gusting 6 4.4
2020-Feb-18 05:50 008 2 gusting 6 3.9
2020-Feb-18 05:45 354 3 gusting 6 3.9
2020-Feb-18 05:40 3.3
2020-Feb-18 05:35 335 2 gusting 5 2.8
2020-Feb-18 05:30 332 2 gusting 5 2.8
2020-Feb-18 05:25 331 2 gusting 5 3.3
2020-Feb-18 05:20 346 2 gusting 6 3.9
2020-Feb-18 05:15 357 3 gusting 6 4.4
2020-Feb-18 05:10 029 4 gusting 8 4.4
2020-Feb-18 05:05 028 3 gusting 7 4.4
2020-Feb-18 05:00 025 3 gusting 7 4.4
2020-Feb-18 04:55 031 5 gusting 8 4.4
2020-Feb-18 04:50 037 2 gusting 8 4.4
2020-Feb-18 04:45 029 4 gusting 10 4.4
2020-Feb-18 04:40 019 6 gusting 10 4.4
2020-Feb-18 04:35 016 5 gusting 8 4.4
2020-Feb-18 04:30 025 3 gusting 6 4.4
2020-Feb-18 04:25 018 2 gusting 6 3.9
2020-Feb-18 04:20 350 1 gusting 2 3.9
2020-Feb-18 04:15 346 1 gusting 2 3.9
2020-Feb-18 04:10 346 1 gusting 4 3.9
2020-Feb-18 04:05 345 3 gusting 6 4.4
2020-Feb-18 04:00 338 5 gusting 10 4.4
2020-Feb-18 03:55 350 5 gusting 10 5.0
2020-Feb-18 03:50 002 5 gusting 10 5.0
2020-Feb-18 03:45 015 4 gusting 8 5.0
2020-Feb-18 03:40 007 5 gusting 11 5.0
2020-Feb-18 03:35 013 5 gusting 11 5.0
2020-Feb-18 03:30 026 4 gusting 8 5.0
2020-Feb-18 03:25 005 5 gusting 10 5.0
2020-Feb-18 03:20 011 6 gusting 12 5.0
2020-Feb-18 03:15 007 6 gusting 10 5.0
2020-Feb-18 03:10 013 6 gusting 11 5.0
2020-Feb-18 03:05 005 5 gusting 10 5.0
2020-Feb-18 03:00 001 6 gusting 11 5.0
2020-Feb-18 02:55 354 5 gusting 10 5.0
2020-Feb-18 02:50 009 5 gusting 10 5.0
2020-Feb-18 02:45 002 5 gusting 10 5.0
2020-Feb-18 02:40 026 4 gusting 10 5.0
2020-Feb-18 02:35 012 6 gusting 10 5.6
2020-Feb-18 02:30 027 5 gusting 10 5.0
2020-Feb-18 02:25 013 6 gusting 11 5.0
2020-Feb-18 02:20 357 5 gusting 10 5.0
2020-Feb-18 02:15 013 5 gusting 8 5.0
2020-Feb-18 02:10 001 5 gusting 10 5.0
2020-Feb-18 02:05 349 5 gusting 10 4.4
2020-Feb-18 02:00 352 5 gusting 8 4.4
2020-Feb-18 01:55 344 5 gusting 10 4.4
2020-Feb-18 01:50 351 3 gusting 7 5.0
2020-Feb-18 01:45 343 4 gusting 6 5.0
2020-Feb-18 01:40 348 5 gusting 8 5.0
2020-Feb-18 01:35 351 6 gusting 10 5.0
2020-Feb-18 01:30 352 6 gusting 10 5.0
2020-Feb-18 01:25 357 5 gusting 10 5.0
2020-Feb-18 01:20 354 6 gusting 10 5.6
2020-Feb-18 01:15 001 6 gusting 10 5.6
2020-Feb-18 01:10 358 6 gusting 10 5.6
2020-Feb-18 01:05 358 6 gusting 10 6.1
2020-Feb-18 01:00 001 5 gusting 10 6.1
2020-Feb-18 00:55 013 6 gusting 10 6.1
2020-Feb-18 00:50 014 4 gusting 11 6.1
2020-Feb-18 00:45 005 5 gusting 10 6.1
2020-Feb-18 00:40 011 4 gusting 7 6.1
2020-Feb-18 00:35 002 4 gusting 8 6.1
2020-Feb-18 00:30 359 4 gusting 6 6.7
2020-Feb-18 00:25 010 4 gusting 8 6.7
2020-Feb-18 00:20 014 5 gusting 10 6.7
2020-Feb-18 00:15 024 5 gusting 10 6.1
2020-Feb-18 00:10 020 3 gusting 7 5.6
2020-Feb-18 00:05 336 2 gusting 4 6.1
2020-Feb-18 00:00 335 4 gusting 5 6.1
2020-Feb-17 23:55 345 2 gusting 6 6.1
2020-Feb-17 23:50 337 4 gusting 6 6.1
2020-Feb-17 23:45 353 4 gusting 5 6.1
2020-Feb-17 23:40 332 4 gusting 6 6.1
2020-Feb-17 23:35 332 4 gusting 6 6.1
2020-Feb-17 23:30 334 5 gusting 6 6.7
2020-Feb-17 23:25 333 4 gusting 6 6.7
2020-Feb-17 23:20 329 2 gusting 5 6.7
2020-Feb-17 23:15 342 2 gusting 6 6.7
2020-Feb-17 23:10 343 4 gusting 5 7.2
2020-Feb-17 23:05 340 4 gusting 6 7.2
2020-Feb-17 23:00 335 4 gusting 6 7.2
2020-Feb-17 22:55 347 2 gusting 5 7.2
2020-Feb-17 22:50 337 2 gusting 5 7.2
2020-Feb-17 22:45 339 4 gusting 6 7.2
2020-Feb-17 22:40 333 4 gusting 5 7.2
2020-Feb-17 22:35 348 4 gusting 6 7.2
2020-Feb-17 22:30 333 2 gusting 5 7.8
2020-Feb-17 22:25 341 3 gusting 5 7.8
2020-Feb-17 22:20 332 4 gusting 5 7.2
2020-Feb-17 22:15 347 2 gusting 4 7.8
2020-Feb-17 22:10 357 3 gusting 6 7.8
2020-Feb-17 22:05 330 4 gusting 5 7.8
2020-Feb-17 22:00 338 3 gusting 6 7.8
2020-Feb-17 21:55 340 3 gusting 6 8.3
2020-Feb-17 21:50 332 2 gusting 6 8.3
2020-Feb-17 21:45 005 6 gusting 10 8.3
2020-Feb-17 21:40 004 3 gusting 6 8.3
2020-Feb-17 21:35 357 4 gusting 10 8.3
2020-Feb-17 21:30 357 2 gusting 6 8.3
2020-Feb-17 21:25 8.3
2020-Feb-17 21:20 343 3 gusting 6 8.3
2020-Feb-17 21:15 024 3 gusting 8 8.9
2020-Feb-17 21:10 013 5 gusting 10 8.9
2020-Feb-17 21:05 358 2 gusting 5 8.3
2020-Feb-17 21:00 355 2 gusting 5 8.3
2020-Feb-17 20:55 343 4 gusting 6 8.3
2020-Feb-17 20:50 351 3 gusting 8 8.9
2020-Feb-17 20:45 357 5 gusting 7 8.9
2020-Feb-17 20:40 348 4 gusting 7 8.9
2020-Feb-17 20:35 358 5 gusting 6 8.9
2020-Feb-17 20:30 339 6 gusting 6 8.9
2020-Feb-17 20:25 336 4 gusting 5 8.9
2020-Feb-17 20:20 336 4 gusting 5 8.9
2020-Feb-17 20:15 341 5 gusting 6 8.9
2020-Feb-17 20:10 336 4 gusting 6 9.4
2020-Feb-17 20:05 352 5 gusting 8 9.4
2020-Feb-17 20:00 354 5 gusting 8 10.0
2020-Feb-17 19:55 347 5 gusting 8 10.0
2020-Feb-17 19:50 352 3 gusting 6 10.0
2020-Feb-17 19:45 350 4 gusting 6 10.0
2020-Feb-17 19:40 347 3 gusting 5 10.0
2020-Feb-17 19:35 343 3 gusting 7 10.0
2020-Feb-17 19:30 339 4 gusting 8 10.6
2020-Feb-17 19:25 341 6 gusting 8 10.6
2020-Feb-17 19:20 340 5 gusting 7 10.6
2020-Feb-17 19:15 350 2 gusting 5 10.6
2020-Feb-17 19:10 002 2 gusting 5 10.6
2020-Feb-17 19:05 355 2 gusting 4 10.6
2020-Feb-17 19:00 357 1 gusting 4 10.6
2020-Feb-17 18:55 355 1 gusting 4 10.6
2020-Feb-17 18:50 10.6
2020-Feb-17 18:45 10.6
2020-Feb-17 18:40 10.6
2020-Feb-17 18:35 10.6
2020-Feb-17 18:30 10.6
2020-Feb-17 18:25 10.6
2020-Feb-17 18:20 11.1
2020-Feb-17 18:15 11.1
2020-Feb-17 18:10 11.1
2020-Feb-17 18:05 11.1
2020-Feb-17 18:00 11.7
2020-Feb-17 17:55 11.7
2020-Feb-17 17:50 11.7
2020-Feb-17 17:45 006 1 gusting 2 11.7
2020-Feb-17 17:40 009 1 gusting 2 12.2
2020-Feb-17 17:35 005 1 gusting 2 12.2
2020-Feb-17 17:30 041 0 gusting 2 12.2
2020-Feb-17 17:25 041 0 gusting 1 12.2
2020-Feb-17 17:20 042 0 gusting 2 12.2
2020-Feb-17 17:15 042 2 gusting 4 12.8
2020-Feb-17 17:10 089 1 gusting 2 12.8
2020-Feb-17 17:05 089 0 gusting 1 12.8
2020-Feb-17 17:00 089 1 gusting 2 12.8
2020-Feb-17 16:55 130 0 gusting 2 12.8
2020-Feb-17 16:50 130 0 gusting 1 12.8
2020-Feb-17 16:45 133 0 gusting 2 12.8
2020-Feb-17 16:40 134 1 gusting 2 12.8
2020-Feb-17 16:35 139 12.8
2020-Feb-17 16:30 139 12.8
2020-Feb-17 16:25 139 12.8
2020-Feb-17 16:20 139 1 gusting 2 12.8
2020-Feb-17 16:11 138 1 gusting 2 12.8
2020-Feb-17 16:05 138 1 gusting 2 12.8
2020-Feb-17 16:00 174 0 gusting 2 12.8
2020-Feb-17 15:50 175 12.8
2020-Feb-17 15:45 175 12.8
2020-Feb-17 15:40 175 1 gusting 2 12.8
2020-Feb-17 15:35 178 0 gusting 2 12.8
2020-Feb-17 15:30 178 2 gusting 2 12.8
2020-Feb-17 15:25 178 12.8
2020-Feb-17 15:20 178 0 gusting 2 12.8
2020-Feb-17 15:15 179 0 gusting 4 12.8
2020-Feb-17 15:10 180 1 gusting 5 12.8
2020-Feb-17 15:05 153 4 gusting 6 12.8
2020-Feb-17 15:00 187 4 gusting 6 12.8
2020-Feb-17 14:55 224 0 gusting 4 12.8
2020-Feb-17 14:50 204 0 gusting 2 12.8
2020-Feb-17 14:45 202 1 gusting 4 12.2
2020-Feb-17 14:40 221 0 gusting 2 12.2
2020-Feb-17 14:35 217 3 gusting 5 12.2
2020-Feb-17 14:30 264 2 gusting 2 12.2
2020-Feb-17 14:25 219 2 gusting 4 12.2
2020-Feb-17 14:20 197 1 gusting 2 12.2
2020-Feb-17 14:15 197 2 gusting 4 12.2
2020-Feb-17 14:10 195 2 gusting 4 11.7
2020-Feb-17 14:05 200 1 gusting 2 11.7
2020-Feb-17 14:00 202 0 gusting 4 11.7
2020-Feb-17 13:55 205 2 gusting 4 11.7
2020-Feb-17 13:50 199 2 gusting 5 11.7
2020-Feb-17 13:45 174 11.7
2020-Feb-17 13:40 171 11.7
2020-Feb-17 13:35 171 1 gusting 2 11.1
2020-Feb-17 13:30 171 0 gusting 4 11.1
2020-Feb-17 13:25 171 4 gusting 4 11.1
2020-Feb-17 13:20 121 11.1
2020-Feb-17 13:15 123 0 gusting 2 11.1
2020-Feb-17 13:10 123 1 gusting 5 11.1
2020-Feb-17 13:05 153 1 gusting 4 11.1
2020-Feb-17 13:00 145 4 gusting 5 10.6
2020-Feb-17 12:55 147 1 gusting 4 10.6
2020-Feb-17 12:50 146 0 gusting 2 10.6
2020-Feb-17 12:45 148 0 gusting 4 10.6
2020-Feb-17 12:40 164 1 gusting 4 10.0
2020-Feb-17 12:35 144 0 gusting 2 10.0
2020-Feb-17 12:30 144 1 gusting 2 10.0
2020-Feb-17 12:25 174 0 gusting 4 10.0
2020-Feb-17 12:20 170 1 gusting 5 10.0
2020-Feb-17 12:15 158 0 gusting 4 9.4
2020-Feb-17 12:10 158 0 gusting 5 9.4
2020-Feb-17 12:05 158 0 gusting 4 9.4
2020-Feb-17 12:00 202 1 gusting 2 9.4
2020-Feb-17 11:55 203 9.4
2020-Feb-17 11:50 203 0 gusting 2 9.4
2020-Feb-17 11:45 203 1 gusting 2 9.4
2020-Feb-17 11:40 203 1 gusting 2 8.9
2020-Feb-17 11:35 198 0 gusting 2 8.9
2020-Feb-17 11:30 198 1 gusting 2 8.9
2020-Feb-17 11:25 172 2 gusting 4 8.9
2020-Feb-17 11:20 205 1 gusting 6 8.3
2020-Feb-17 11:15 233 3 gusting 6 8.3
2020-Feb-17 11:10 207 0 gusting 2 8.3
2020-Feb-17 11:05 161 0 gusting 2 8.3
2020-Feb-17 11:00 161 0 gusting 4 8.3
2020-Feb-17 10:55 161 0 gusting 2 8.3
2020-Feb-17 10:50 186 1 gusting 2 8.3
2020-Feb-17 10:45 260 1 gusting 2 7.8
2020-Feb-17 10:40 260 0 gusting 2 7.8
2020-Feb-17 10:35 260 1 gusting 5 7.8
2020-Feb-17 10:30 255 1 gusting 2 7.8
2020-Feb-17 10:25 255 7.8
2020-Feb-17 10:20 255 7.8
2020-Feb-17 10:15 255 7.8
2020-Feb-17 10:10 255 2 gusting 2 7.8
2020-Feb-17 10:05 246 1 gusting 6 7.8
2020-Feb-17 10:00 261 4 gusting 6 7.8
2020-Feb-17 09:55 276 1 gusting 2 7.8
2020-Feb-17 09:50 252 1 gusting 2 7.8
2020-Feb-17 09:45 250 3 gusting 6 7.8
2020-Feb-17 09:40 254 2 gusting 2 7.8
2020-Feb-17 09:35 173 1 gusting 2 7.8
2020-Feb-17 09:30 173 7.8
2020-Feb-17 09:25 173 1 gusting 4 7.8
2020-Feb-17 09:20 174 4 gusting 5 7.8
2020-Feb-17 09:15 170 1 gusting 4 7.8
2020-Feb-17 09:10 173 0 gusting 4 7.8
2020-Feb-17 09:05 200 0 gusting 1 7.8
2020-Feb-17 09:00 200 0 gusting 2 7.8
2020-Feb-17 08:55 200 1 gusting 2 7.8
2020-Feb-17 08:50 200 3 gusting 5 7.8
2020-Feb-17 08:45 172 2 gusting 4 7.8
2020-Feb-17 08:40 172 1 gusting 5 7.8
2020-Feb-17 08:35 165 7.8
2020-Feb-17 08:30 165 7.2
2020-Feb-17 08:25 165 7.2
2020-Feb-17 08:20 165 7.2
2020-Feb-17 08:15 165 7.2
2020-Feb-17 08:10 165 0 gusting 2 7.2
2020-Feb-17 08:05 165 7.2
2020-Feb-17 08:00 165 0 gusting 1 6.7
2020-Feb-17 07:55 165 0 gusting 2 6.7
2020-Feb-17 07:50 154 2 gusting 5 6.7
2020-Feb-17 07:45 160 1 gusting 4 6.7
2020-Feb-17 07:40 190 6.7
2020-Feb-17 07:35 190 7.2
2020-Feb-17 07:30 190 7.2
2020-Feb-17 07:25 190 6.7
2020-Feb-17 07:20 190 6.7
2020-Feb-17 07:15 190 6.7
2020-Feb-17 07:10 190 6.7
2020-Feb-17 07:05 190 6.7
2020-Feb-17 07:00 190 6.7
2020-Feb-17 06:55 190 6.7
2020-Feb-17 06:50 190 0 gusting 2 6.7
2020-Feb-17 06:45 190 0 gusting 1 6.7
2020-Feb-17 06:40 190 0 gusting 1 6.7
2020-Feb-17 06:35 190 0 gusting 2 6.7
2020-Feb-17 06:30 189 1 gusting 2 6.7
2020-Feb-17 06:25 190 2 gusting 4 6.7
2020-Feb-17 06:20 192 1 gusting 4 6.7
2020-Feb-17 06:15 182 3 gusting 6 6.7
2020-Feb-17 06:10 175 4 gusting 6 6.7
2020-Feb-17 06:05 177 0 gusting 4 6.7
2020-Feb-17 06:00 168 2 gusting 6 6.7
2020-Feb-17 05:55 155 2 gusting 6 6.7
2020-Feb-17 05:50 171 4 gusting 6 6.7
2020-Feb-17 05:45 159 4 gusting 6 6.7
2020-Feb-17 05:40 171 3 gusting 5 6.7
2020-Feb-17 05:35 175 2 gusting 5 6.7
2020-Feb-17 05:30 187 2 gusting 5 6.7
2020-Feb-17 05:25 178 1 gusting 4 6.7
2020-Feb-17 05:20 204 1 gusting 2 6.7
2020-Feb-17 05:15 200 2 gusting 5 6.7
2020-Feb-17 05:10 159 3 gusting 5 6.7
2020-Feb-17 05:05 170 2 gusting 6 6.7
2020-Feb-17 05:00 150 1 gusting 2 6.7
2020-Feb-17 04:55 150 2 gusting 4 6.7
2020-Feb-17 04:50 210 0 gusting 2 6.7
2020-Feb-17 04:45 210 6.7
2020-Feb-17 04:40 210 6.1
2020-Feb-17 04:35 210 6.7
2020-Feb-17 04:30 210 6.7
2020-Feb-17 04:25 210 0 gusting 2 6.7
2020-Feb-17 04:20 210 0 gusting 1 6.1
2020-Feb-17 04:15 210 6.1
2020-Feb-17 04:10 210 6.1
2020-Feb-17 04:05 210 6.1
2020-Feb-17 04:00 210 6.1
2020-Feb-17 03:55 210 6.1
2020-Feb-17 03:50 210 6.1
2020-Feb-17 03:45 210 6.1
2020-Feb-17 03:40 210 6.1
2020-Feb-17 03:35 210 6.1
2020-Feb-17 03:30 210 6.1
2020-Feb-17 03:25 210 6.1
2020-Feb-17 03:20 210 6.1
2020-Feb-17 03:15 210 6.1
2020-Feb-17 03:10 210 6.1
2020-Feb-17 03:05 210 6.1
2020-Feb-17 03:00 210 6.7
2020-Feb-17 02:55 210 6.7
2020-Feb-17 02:50 210 6.7
2020-Feb-17 02:45 210 6.7
2020-Feb-17 02:40 210 6.7
2020-Feb-17 02:35 210 6.1
2020-Feb-17 02:30 210 6.1
2020-Feb-17 02:25 210 6.1
2020-Feb-17 02:20 210 6.1
2020-Feb-17 02:15 210 6.1
2020-Feb-17 02:10 210 6.1
2020-Feb-17 02:05 210 6.1
2020-Feb-17 02:00 210 6.1
2020-Feb-17 01:55 210 6.1
2020-Feb-17 01:50 210 6.1
2020-Feb-17 01:45 210 6.1
2020-Feb-17 01:40 210 6.7
2020-Feb-17 01:35 210 6.7
2020-Feb-17 01:30 210 6.7
2020-Feb-17 01:25 210 6.7
2020-Feb-17 01:20 210 7.2
2020-Feb-17 01:15 210 7.2
2020-Feb-17 01:10 210 7.2
2020-Feb-17 01:05 210 6.7
2020-Feb-17 01:00 210 6.7